Tracking 19903 objects as of 16-Oct-2019
HD Live streaming from Space Station
objects crossing your sky now

TITAN 34B R/B

Track TITAN 34B R/B now!


NORAD ID: 17507
Int'l Code: 1987-015B
Perigee: 1,029.5 km
Apogee: 38,583.8 km
Inclination: 63.7 °
Period: 702.5 minutes
Semi major axis: 26177 km
RCS: Unknown
Launch date: February 12, 1987
Source: United States (US)
Launch site: AIR FORCE WESTERN TEST RANGE (AFWTR)

Note: This is a ROCKET BODY
aabbcc
Your satellite tracking list
Your tracking list is empty




NASA's NSSDC Master Catalog

Two Line Element Set (TLE):
1 17507U 87015B   19288.32199455 +.00000217 +00000-0 +00000-0 0  9997
2 17507 063.6679 092.9561 7172959 266.1275 017.0102 02.04977462002587
Source of the keplerian elements: AFSPC